Weather History for Asheville, NC

Change the Weather History Date:

Wednesday, October 1, 2014

  Actual Average Record
Temperature  
Mean Temperature 65 °F 61 °F  
Max Temperature 79 °F 72 °F 86 °F (1941)
Min Temperature 50 °F 50 °F 29 °F (1895)
Degree Days  
Heating Degree Days 0 5  
Month to date heating degree days 0 5  
Since 1 July heating degree days 19 62  
Cooling Degree Days 0 1  
Month to date cooling degree days 0 1  
Year to date cooling degree days 904 853  
Growing Degree Days 14 (Base 50)    
Moisture  
Dew Point 55 °F    
Average Humidity 72    
Maximum Humidity 96    
Minimum Humidity 48    
Precipitation  
Precipitation T in 0.11 in 2.05 in (1929)
Month to date precipitation T 0.11  
Year to date precipitation 36.65 35.53  
Snow  
Snow 0.00 in 0.00 in 0.00 in ()
Month to date snowfall 0.0 0.0  
Since 1 July snowfall 0.0 0.0  
Since 1 September snowfall 0.0 0.0  
Snow Depth 0.00 in    
Sea Level Pressure  
Sea Level Pressure 30.01 in    
Wind  
Wind Speed 2 mph (NW)    
Max Wind Speed 8 mph    
Max Gust Speed 11 mph    
Visibility 6 miles    
Events Fog    
T = Trace of Precipitation, MM = Missing Value Source: NWS Daily Summary

Daily Weather History Graph

Daily Weather History Graph

Search for Another Location

Airport:

Trip Planner

Search our weather history database for the weather conditions in past years. The results will help you decide how hot, cold, wet, or windy it might be!

Date:

Astronomy

Oct. 01, 2014 Rise Set
Actual Time 7:25 AM EDT 7:13 PM EDT
Civil Twilight 6:59 AM EDT 7:39 PM EDT
Nautical Twilight 6:30 AM EDT 8:08 PM EDT
Astronomical Twilight 6:00 AM EDT 8:38 PM EDT
Moon 2:15 PM EDT (10/1) No Moon Set
Length of Visible Light 12h 39m
Length of Day
11h 48m
Waxing Crescent, 48% of the Moon is Illuminated
Oct 1
Waxing Crescent
Oct 1
First Quarter
Oct 8
Full
Oct 15
Last Quarter
Oct 23
New

Hourly Weather History & Observations

Time (EDT) Temp. Dew Point Humidity Pressure Visibility Wind Dir Wind Speed Gust Speed Precip Events Conditions
12:54 AM 60.1 °F 59.0 °F 96% 29.98 in 0.8 mi Calm Calm - N/A   Mist
1:21 AM 60.1 °F 59.0 °F 96% 30.02 in 0.5 mi Calm Calm - N/A Fog Fog
1:31 AM 60.1 °F 59.0 °F 96% 30.02 in 1.5 mi Calm Calm - N/A   Overcast
1:35 AM 61.0 °F 59.0 °F 93% 30.02 in 3.0 mi NNW 4.6 mph - N/A   Overcast
1:54 AM 55.9 °F 54.0 °F 93% 29.95 in 10.0 mi Calm Calm - N/A   Clear
2:54 AM 61.0 °F 57.9 °F 90% 29.96 in 9.0 mi NNW 6.9 mph - N/A   Overcast
3:31 AM 53.1 °F 52.0 °F 96% 30.01 in 2.5 mi Calm Calm - N/A   Partly Cloudy
3:37 AM 53.1 °F 51.1 °F 93% 30.00 in 1.2 mi Calm Calm - N/A   Scattered Clouds
3:47 AM 53.1 °F 52.0 °F 96% 30.01 in 1.5 mi Calm Calm - N/A   Partly Cloudy
3:49 AM 53.6 °F 51.8 °F 94% 30.01 in 1.0 mi Calm Calm - N/A   Mist
3:52 AM 60.8 °F 59.0 °F 94% 30.00 in 9.0 mi NNW 5.8 mph - N/A   Overcast
3:54 AM 53.1 °F 52.0 °F 96% 29.95 in 0.5 mi Calm Calm - N/A Fog Fog
4:01 AM 52.0 °F 51.1 °F 97% 30.01 in 0.2 mi Calm Calm - N/A Fog Fog
4:13 AM 52.0 °F 51.1 °F 97% 30.01 in 0.5 mi Calm Calm - N/A Fog Fog
4:35 AM 53.1 °F 51.1 °F 93% 30.02 in 1.2 mi Calm Calm - N/A   Scattered Clouds
4:39 AM 53.1 °F 52.0 °F 96% 30.02 in 2.0 mi Calm Calm - N/A   Scattered Clouds
4:51 AM 51.8 °F 50.0 °F 94% 30.02 in 0.8 mi Calm Calm - N/A   Mist
4:52 AM 51.8 °F 50.0 °F 94% 30.02 in 0.8 mi Calm Calm - N/A   Mist
5:09 AM 52.0 °F 50.0 °F 93% 30.02 in 1.5 mi Calm Calm - N/A   Mostly Cloudy
5:11 AM 51.1 °F 50.0 °F 96% 30.02 in 4.0 mi Calm Calm - N/A   Mostly Cloudy
5:18 AM 52.0 °F 50.0 °F 93% 30.02 in 10.0 mi Calm Calm - N/A   Scattered Clouds
5:54 AM 51.1 °F 50.0 °F 96% 29.97 in 9.0 mi Calm Calm - N/A   Clear
6:54 AM 51.1 °F 48.9 °F 92% 30.00 in 10.0 mi Calm Calm - N/A   Clear
7:25 AM 50.0 °F 48.9 °F 96% 30.06 in 1.8 mi Calm Calm - N/A   Partly Cloudy
7:40 AM 51.1 °F 48.9 °F 92% 30.06 in 3.0 mi Calm Calm - N/A   Scattered Clouds
7:54 AM 52.0 °F 50.0 °F 93% 30.03 in 2.0 mi Calm Calm - N/A   Scattered Clouds
8:12 AM 53.1 °F 51.1 °F 93% 30.08 in 2.0 mi Calm Calm - N/A   Mostly Cloudy
8:54 AM 55.0 °F 53.1 °F 93% 30.04 in 4.0 mi Calm Calm - N/A   Partly Cloudy
9:54 AM 60.1 °F 55.0 °F 83% 30.06 in 10.0 mi NW 3.5 mph - N/A   Partly Cloudy
10:54 AM 66.0 °F 57.0 °F 73% 30.05 in 10.0 mi North 4.6 mph - N/A   Clear
11:54 AM 73.9 °F 59.0 °F 59% 30.03 in 10.0 mi Calm Calm - N/A   Clear
12:54 PM 75.0 °F 57.0 °F 53% 30.01 in 10.0 mi Calm Calm - N/A   Scattered Clouds
1:54 PM 77.0 °F 53.1 °F 43% 29.90 in 10.0 mi NNW 9.2 mph 20.7 mph N/A   Clear
2:54 PM 78.1 °F 57.0 °F 48% 29.99 in 10.0 mi Variable 3.5 mph - N/A   Mostly Cloudy
3:54 PM 79.0 °F 50.0 °F 36% 29.87 in 10.0 mi NNW 13.8 mph - N/A   Clear
4:54 PM 75.9 °F 60.1 °F 58% 29.98 in 10.0 mi SE 5.8 mph - N/A   Clear
5:54 PM 75.0 °F 59.0 °F 57% 29.99 in 10.0 mi South 9.2 mph - N/A   Partly Cloudy
6:54 PM 71.1 °F 60.1 °F 68% 30.01 in 10.0 mi Calm Calm - N/A   Mostly Cloudy
7:54 PM 69.1 °F 61.0 °F 75% 30.01 in 10.0 mi South 3.5 mph - 0.00 in   Mostly Cloudy
8:54 PM 66.9 °F 62.1 °F 84% 30.04 in 10.0 mi Calm Calm - N/A   Scattered Clouds
9:54 PM 64.9 °F 61.0 °F 87% 30.05 in 10.0 mi Calm Calm - N/A   Partly Cloudy
10:54 PM 63.0 °F 60.1 °F 90% 30.06 in 10.0 mi West 3.5 mph - N/A   Clear
11:54 PM 62.1 °F 59.0 °F 90% 30.05 in 10.0 mi Calm Calm - N/A   Clear